Location: Capelle
(50.3413°N, 1.9974°E)
Time: 20:15:17
(UTC+00:00)

Cosmos 2056 Rocket - Pass Details

Date: 12 January 2026
Orbit: 739 x 795 km, 74.0° (Epoch: 16 February)

Event Time Altitude Azimuth Distance (km) Brightness Sun altitude
Rises 18:05:06 0° 209° (SSW) 3,193 7.4 -17.2°
Reaches altitude 10° 18:07:29 10° 212° (SSW) 2,265 6.6 -17.5°
Maximum altitude 18:12:35 71° 296° (WNW) 791 3.7 -18.3°
Enters shadow 18:16:57 14° 19° (NNE) 1,975 5.3 -19.0°
